Change the Weather History Date:

Monday, May 5, 2014

  Actual Average Record
Temperature  
Mean Temperature 50 °F -  
Max Temperature 57 °F 63 °F 90 °F (1944)
Min Temperature 44 °F 37 °F 24 °F (1974)
Degree Days  
Heating Degree Days 14    
Moisture  
Dew Point 39 °F    
Average Humidity 65    
Maximum Humidity 80    
Minimum Humidity 44    
Precipitation  
Precipitation 0.00 in - - ()
Sea Level Pressure  
Sea Level Pressure 29.79 in    
Wind  
Wind Speed 5 mph (NNW)    
Max Wind Speed 15 mph    
Max Gust Speed 25 mph    
Visibility 10 miles    
Events      
Averages and records for this station are not official NWS values.
T = Trace of Precipitation, MM = Missing Value Source: NWS Daily Summary

Daily Weather History Graph

Daily Weather History Graph

Search for Another Location

Airport or City:

Trip Planner

Search our weather history database for the weather conditions in past years. The results will help you decide how hot, cold, wet, or windy it might be!

Date:

Astronomy

May. 05, 2014 Rise Set
Actual Time 5:36 AM EDT 7:56 PM EDT
Civil Twilight 5:04 AM EDT 8:28 PM EDT
Nautical Twilight 4:24 AM EDT 9:08 PM EDT
Astronomical Twilight 3:40 AM EDT 9:52 PM EDT
Moon 10:53 AM EDT (5/5) 12:38 AM EDT (5/5)
Length of Visible Light 15h 23m
Length of Day
14h 20m
Waxing Crescent, 36% of the Moon is Illuminated
May 5
Waxing Crescent
May 6
First Quarter
May 14
Full
May 21
Last Quarter
May 28
New

Hourly Weather History & Observations

Time (EDT) Temp. Dew Point Humidity Pressure Visibility Wind Dir Wind Speed Gust Speed Precip Events Conditions
12:53 AM 46.9 °F 41.0 °F 80% 29.66 in 10.0 mi Calm Calm - N/A   Overcast
1:53 AM 48.0 °F 41.0 °F 77% 29.67 in 10.0 mi Variable 4.6 mph - N/A   Overcast
2:07 AM 48.9 °F 42.1 °F 77% 29.67 in 10.0 mi NW 3.5 mph - N/A   Overcast
2:22 AM 48.9 °F 42.1 °F 77% 29.67 in 10.0 mi NW 4.6 mph - N/A   Overcast
2:53 AM 48.9 °F 42.1 °F 77% 29.68 in 10.0 mi NW 3.5 mph - N/A   Overcast
3:53 AM 48.9 °F 42.1 °F 77% 29.69 in 10.0 mi NW 4.6 mph - N/A   Overcast
4:53 AM 50.0 °F 42.1 °F 74% 29.71 in 10.0 mi NNW 4.6 mph - N/A   Overcast
5:35 AM 50.0 °F 41.0 °F 71% 29.73 in 10.0 mi North 6.9 mph - N/A   Overcast
5:43 AM 50.0 °F 41.0 °F 71% 29.73 in 10.0 mi North 5.8 mph - N/A   Overcast
5:53 AM 50.0 °F 41.0 °F 71% 29.74 in 10.0 mi NNW 9.2 mph - N/A   Overcast
6:53 AM 50.0 °F 39.9 °F 68% 29.77 in 10.0 mi NW 5.8 mph - N/A   Overcast
7:53 AM 50.0 °F 39.0 °F 66% 29.79 in 10.0 mi NNW 6.9 mph - N/A   Overcast
8:53 AM 50.0 °F 39.0 °F 66% 29.80 in 10.0 mi North 8.1 mph - N/A   Overcast
9:53 AM 51.1 °F 37.9 °F 61% 29.82 in 10.0 mi NW 11.5 mph - N/A   Overcast
10:39 AM 52.0 °F 37.9 °F 59% 29.82 in 10.0 mi NW 9.2 mph - N/A   Overcast
10:53 AM 51.1 °F 37.9 °F 61% 29.82 in 10.0 mi WNW 10.4 mph - N/A   Overcast
11:53 AM 52.0 °F 37.0 °F 57% 29.83 in 10.0 mi NNW 11.5 mph 20.7 mph N/A   Overcast
12:53 PM 52.0 °F 37.9 °F 59% 29.84 in 10.0 mi NW 10.4 mph 18.4 mph N/A   Overcast
2:53 PM 55.9 °F 36.0 °F 47% 29.82 in 10.0 mi NW 15.0 mph 25.3 mph N/A   Overcast
3:53 PM 57.0 °F 37.0 °F 47% 29.82 in 10.0 mi WNW 8.1 mph - N/A   Overcast
4:53 PM 57.9 °F 36.0 °F 44% 29.82 in 10.0 mi WNW 12.7 mph - N/A   Overcast
5:53 PM 55.9 °F 36.0 °F 47% 29.83 in 10.0 mi NW 12.7 mph - N/A   Mostly Cloudy
6:53 PM 53.1 °F 37.0 °F 55% 29.85 in 10.0 mi NNW 10.4 mph - N/A   Overcast
7:53 PM 50.0 °F 36.0 °F 59% 29.86 in 10.0 mi North 11.5 mph - N/A   Clear
8:53 PM 46.0 °F 36.0 °F 68% 29.88 in 10.0 mi Calm Calm - N/A   Scattered Clouds
9:01 PM 46.0 °F 37.0 °F 71% 29.88 in 10.0 mi Calm Calm - N/A   Mostly Cloudy
9:53 PM 48.0 °F 37.0 °F 66% 29.88 in 10.0 mi NE 4.6 mph - N/A   Overcast
10:39 PM 44.1 °F 37.0 °F 76% 29.89 in 10.0 mi Calm Calm - N/A   Mostly Cloudy
10:53 PM 46.9 °F 37.0 °F 68% 29.89 in 10.0 mi Calm Calm - N/A   Mostly Cloudy